Location: Eaton Estates
(41.3089°N, 82.0057°W)
Time: 11:11:04
(UTC+00:00)

Cosmos 2123 Rocket - Pass Details

Date: 25 October 2021
Orbit: 961 x 992 km, 82.9° (Epoch: 29 November)

Event Time Altitude Azimuth Distance (km) Brightness Sun altitude
Rises 00:54:22 0° 338° (NNW) 3,713 7.4 -27.1°
Reaches altitude 10° 00:57:28 10° 324° (NW) 2,756 6.9 -27.7°
Maximum altitude 01:02:05 22° 277° (W) 2,012 6.3 -28.5°
Drops below altitude 10° 01:06:41 10° 229° (SW) 2,730 6.8 -29.4°
Sets 01:09:45 0° 215° (SW) 3,668 7.3 -29.9°
